Tracking 29892 objects as of 21-Nov-2024
HD Live streaming from Space Station
objects crossing your sky now

STARLINK-32102

Track STARLINK-32102 now!
10-day predictions
STARLINK-32102 is classified as:


NORAD ID: 59699
Int'l Code: 2024-086T
Perigee: 450.0 km
Apogee: 452.4 km
Inclination: 43.0 °
Period: 93.5 minutes
Semi major axis: 6822 km
RCS: Unknown
Launch date: May 8, 2024
Source: United States (US)
Launch site: AIR FORCE EASTERN TEST RANGE (AFETR)
Your satellite tracking list
Your tracking list is empty




NASA's NSSDC Master Catalog

Two Line Element Set (TLE):
1 59699U 24086T   24326.10552414 -.00000264  00000-0  94300-6 0  9992
2 59699  43.0020 229.1624 0001747 266.9558  93.1099 15.40684493 31273
Source of the keplerian elements: AFSPC